Regional Weather Roundup
Issued by NWS Kansas City/Pleasant Hill, MO

Current Version | Previous Version | Text Only | Print | Product List | Glossary On
Versions: 1 2 3 4 5 6 7 8 9 10 11 12 13 14 15 16 17 18 19 20 21 22 23 24 25 26 27 28 29 30 31 32 33 34 35 36 37 38 39 40 41 42 43 44 45 46 47 48 49 50
000
ASUS43 KEAX 271311
RWREAX

WEATHER ROUNDUP FOR EASTERN KANSAS AND NORTHWEST MISSOURI
NATIONAL WEATHER SERVICE KANSAS CITY/PLEASANT HILL MO
700 AM CST FRI FEB 27 2015

KSZ040-057-103>105-MOZ028-029-037-043-271400-
...KANSAS CITY METROPOLITAN AREA...

CITY           SKY/WX    TMP DP  RH WIND       PRES   REMARKS
K.C. INTL      PTCLDY     2  -3  80 N3        30.61R
K.C. DOWNTOWN  CLEAR      6  -3  66 N5        30.64R WCI  -3
LEES SUMMIT    PTCLDY     4  -4  69 N5        30.61R WCI  -5
OLATHE - IXD   CLEAR      3  -2  79 N6        30.61S WCI  -8
OLATHE - OJC   CLEAR      5  -3  69 NE5       30.59R WCI  -4
LAWRENCE       PTCLDY     2  -3  80 NW3       30.64R

$$

MOZ001>008-011>017-020>025-030>033-038>040-044>046-053-054-271400-
...NORTHERN AND CENTRAL MISSOURI...

CITY           SKY/WX    TMP DP  RH WIND       PRES   REMARKS
ST. JOSEPH     CLEAR      0  -4  83 CALM      30.65R
MOSBY          SUNNY      3   0  85 CALM      30.64S
WARRENSBURG    CLEAR      3   0  85 CALM      30.64R
WHITEMAN AFB   CLEAR      3  -2  79 N2        30.62R
CLINTON        CLEAR      7   1  78 NE3       30.64S
SEDALIA        CLEAR      3  -2  79 CALM      30.64R
WARSAW         NOT AVBL
MARSHALL       CLEAR      5   0  78 CALM      30.63R
CHILLICOTHE      N/A      0  -6  76 NW3       30.65R
MOBERLY        CLEAR      1  -6  71 NW3       30.62R
KIRKSVILLE     CLEAR     -8 -11  86 W5        30.60R WCI -19

$$

MOZ041-047>049-056>058-063>065-088>090-097-271400-
...EASTERN AND SOUTHERN MISSOURI...

CITY           SKY/WX    TMP DP  RH WIND       PRES   REMARKS
ST. LOUIS INTL PTCLDY     3  -6  66 W5        30.64R WCI  -6
SPIRIT OF STL  CLEAR      2  -4  76 W3        30.64R
COLUMBIA       CLEAR      2  -3  80 CALM      30.61R
JEFFERSON CITY CLEAR      3  -3  76 CALM      30.67R
MEXICO         CLEAR      1  -2  85 NW3       30.61R
HANNIBAL       CLEAR     -4  -9  77 W3        30.63R
ROLLA          CLEAR      2  -6  69 N6        30.57R WCI  -9
OSAGE BEACH    CLEAR      1  -2  85 NE3       30.61R
SPRINGFIELD    CLEAR      6  -1  73 N6        30.55R WCI  -4
BRANSON        CLEAR      7   1  78 N6        30.54R WCI  -3
NEVADA         CLEAR      5   1  85 NE6       30.62F WCI  -6
JOPLIN         CLEAR      8   1  73 NE8       30.57F WCI  -4
WEST PLAINS    CLEAR      6  -2  69 NE8       30.54R WCI  -7

$$

IAZ060-094-KSZ022-034>040-054-083-096-NEZ052-066-093-271400-
...KANSAS...SOUTHEAST NEBRASKA AND IOWA...

CITY           SKY/WX    TMP DP  RH WIND       PRES   REMARKS
TOPEKA         PTCLDY     6  -2  69 CALM      30.64R
MANHATTAN      PTCLDY     7   1  76 CALM      30.61R
EMPORIA        CLOUDY     6   1  80 NE6       30.58R WCI  -4
CHANUTE        CLOUDY     8  -1  66 NE5       30.60R WCI   0
WICHITA        CLOUDY    11  -2  56 E12       30.55F WCI  -3
OMAHA          CLEAR     -1  -7  75 CALM      30.62R
LINCOLN        CLEAR     -6 -11  79 N3        30.61R
FALLS CITY     CLEAR     -2  -8  76 NW5       30.62R WCI -12
LAMONI         CLEAR     -6 -11  79 NW6       30.58R WCI -19
DES MOINES     CLEAR     -7 -13  75 NW5       30.59S WCI -18

$$




USA.gov is the U.S. government's official web portal to all federal, state and local government web resources and services.